Regional Weather Roundup
Issued by NWS Charleston, SC

Current Version | Previous Version | Graphics & Text | Print | Product List | Glossary On
Versions: 1 2 3 4 5 6 7 8 9 10 11 12 13 14 15 16 17 18 19 20 21 22 23 24 25 26 27 28 29 30 31 32 33 34 35 36 37 38 39 40 41 42 43 44 45 46 47 48 49 50
000
ASUS42 KCHS 201310
RWRCHS

REGIONAL WEATHER ROUNDUP
NATIONAL WEATHER SERVICE CHARLESTON SC
800 AM EST SAT DEC 20 2014

NOTE: "FAIR" INDICATES FEW OR NO CLOUDS BELOW 12,000 FEET WITH NO
SIGNIFICANT WEATHER AND/OR OBSTRUCTIONS TO VISIBILITY.

NOT ALL STATIONS ARE QUALITY CONTROLLED BY THE NATIONAL
WEATHER SERVICE. USE DATA WITH CAUTION...ESPECIALLY
DEWPOINT OBSERVATIONS.

SCZ027-030-031-034>040-042>050-201400-
...SOUTHEAST SOUTH CAROLINA...

CITY           SKY/WX    TMP DP  RH WIND       PRES   REMARKS
N CHARLESTON   LGT RAIN  51  47  86 E8        30.17S
WATERFRONT PRK   N/A     52 N/A N/A N8          N/A
MOUNT PLEASANT LGT RAIN  52  50  93 CALM      30.18R
PINOPOLIS        N/A     50  46  87 E7        30.10R
MONCKS CORNER  FAIR      50  46  87 CALM      30.17R
SUMMERVILLE    NOT AVBL
BEAUFORT MCAS  CLOUDY    51  47  86 NE5       30.16R
BEAUFORT ARPT  LGT RAIN  52  48  87 NE6       30.14F
HILTON HEAD IS MOCLDY    52  48  87 N5        30.17S
WALTERBORO     DRIZZLE   50 N/A N/A CALM      30.17R
ALLENDALE      CLOUDY    48  46  93 N3        30.18R

...SOUTHERN MIDLANDS AND PEE DEE...

CITY           SKY/WX    TMP DP  RH WIND       PRES   REMARKS
GEORGETOWN     NOT AVBL
KINGSTREE      NOT AVBL
ORANGEBURG     LGT RAIN  47  44  90 NE3       30.20R FOG
BARNWELL         N/A     46  46 100 CALM      30.21R
AIKEN          LGT RAIN  45  45 100 CALM      30.22R
MANNING        NOT AVBL
COLUMBIA       LGT RAIN  46  42  86 NE3       30.20R
SUMTER         LGT RAIN  44  42  93 NE7       30.19R
FLORENCE       CLOUDY    43  40  89 NE6       30.21R
MYRTLE BEACH   LGT RAIN  46  43  87 NE10      30.21R
N MYRTLE BEACH CLOUDY    46  43  89 NE10      30.19R

$$

GAZ063-065-086>088-099>101-113>116-118-119-134>141-150-201400-
...SOUTHEAST GEORGIA...

CITY           SKY/WX    TMP DP  RH WIND       PRES   REMARKS
SAVANNAH ARPT  LGT RAIN  51  48  89 CALM      30.16R
HUNTER AAF     LGT RAIN  52  50  95 CALM      30.14R
FORT STEWART   LGT RAIN  51  50  94 CALM      30.14S
STATESBORO     DRIZZLE   49  49 100 CALM      30.18R
SYLVANIA       CLOUDY    48  48 100 N3        30.18R
CLAXTON        LGT RAIN  50  50 100 CALM      30.17R

...CSRA...CENTRAL AND FAR SOUTHEAST GEORGIA...

CITY           SKY/WX    TMP DP  RH WIND       PRES   REMARKS
THOMSON        CLOUDY    48  48 100 CALM      30.23R
AUGUSTA-BUSH   LGT RAIN  48  46  93 CALM      30.20R
AUGUSTA-DANIEL LGT RAIN  49  47  93 E6        30.19R
SWAINSBORO     RAIN     N/A N/A N/A CALM      30.19R
VIDALIA        CLOUDY    50  50 100 N3        30.17R
EASTMAN        RAIN      48  48 100 CALM      30.20R
HAZLEHURST     DRIZZLE   51  51 100 CALM      30.16R
ALMA           CLOUDY    51  48  89 CALM      30.14S
WAYCROSS       CLOUDY    54  53  96 CALM      30.14S
JESUP          CLOUDY    54  52  94 CALM      30.15S
BAXLEY         LGT RAIN  52  50  93 NE3       30.14S
BRUNSWICK      CLOUDY    54  50  87 CALM      30.15R
SAINT SIMONS   CLOUDY    54  50  86 N5        30.14R

$$

SCZ027-028-034-036>038-045-046-048>050-GAZ119-141-201400-
...LAKE AND SUPPLEMENTAL COASTAL OBSERVATIONS...

STATION/POSITION TIME  TEMP    WIND        PRES    WAVE   SWELL
                       AIR SEA DIR/SP/G            HT/PER HT/PER/DIR
                 (UTC) (F)     (DEG/KT/KT) (MB)    (FT/S) (FT/S/D)
UPR LAKE MARION  NOT AVBL
WINYAH BAY       1200   53      40/ 10     1020.0S
LAKE MURRAY      1200   45      70/  3/  5 1022.0R
ACE BASIN NERRS  1200   49      10/  2     1021.0S
FORT PULASKI     1300   54 57   50/  5/  8 1021.1R
SAPELO ISLAND    1200   54      30/  4     1020.0S

$$

ANZ835-935-AMZ111-154-330-350-352-354-370-450-454-472-201400-
...C-MAN AND BUOY OBSERVATIONS...

STATION/POSITION TIME  TEMP    WIND        PRES    WAVE   SWELL
                       AIR SEA DIR/SP/G            HT/PER HT/PER/DIR
                 (UTC) (F)     (DEG/KT/KT) (MB)    (FT/S) (FT/S/D)
BUOY 41004       1300   63 69   60/ 17/ 19 1020.0R   4/ 5   2/10
BUOY 41008       1300   58 57   30/ 12/ 14 1020.0R   2/11   2/110/11
FOLLY BEACH CMAN 1200   54      30/ 12/ 13 1021.7R
CAPERS NEARSHORE 1200   54      60/ 14/ 16   N/A
FRIPP NEARSHORE  NOT AVBL


STATION/POSITION TIME  TEMP    WIND        PRES    WAVE   SWELL
                       AIR SEA DIR/SP/G            HT/PER HT/PER/DIR
                 (UTC) (F)     (DEG/KT/KT) (MB)    (FT/S) (FT/S/D)
5E ST. MARYS GA  1300      61                N/A     2/ 3
FRYING PAN BUOY  1300   56 68   70/ 14/ 16 1022.5F   3/ 4   2/100/11
BUOY 41025       1300   48                 1025.0R   3/ 8
CAPE LOOKOUT NC  1200   46      10/ 10/ 11 1024.1R
BUOY 41002       1235   66 72   70/ 12/ 16 1021.6R   2/10   2/ 80/10
BUOY 41010       1300   72 76  160/  6/  8 1020.1R   2/10   2/ 80/10
ST AUGUSTINE FL  1300   64     360/  8/  9 1020.3R


$$



USA.gov is the U.S. government's official web portal to all federal, state and local government web resources and services.